Zurück zum Katalog

FREGAT R/B

AktivHEO
NORAD 42940·ROCKET BODY·🇷🇺 Russia

Gestartet Sep 22, 2017 von Plesetsk Cosmodrome

Loading…

Nächste Überflüge (nächste 24 Stunden)

TLE

AktuellSource: Space-Track

Epoche: Sep 14, 2026, 02:14 UTC

1 42940U 17055B   26257.09336959  .00000020  00000-0  00000-0 0  9995
2 42940  63.9601 194.7539 0084807 131.3755 229.3517  2.07651954 67557

Verfolge FREGAT R/B in Echtzeit mit AllMySat

Download on the App Store